Lid_Strength_Index
-1 -0 0 3 11 12 15 13 10 10 10 7 6 7 9 8 10 13 2 1 0 0 -0 -1 -2 -1 -1 -2 -2 -2 -2 -2 -2 -2 -2 -2 -1 -1 -1 -1 -1 -1 -1 -1 -1 -1 -1 -1 -1
-0 0 2 6 13 17 15 11 11 10 8 6 6 7 8 9 5 4 3 1 -0 -0 -0 -1 -1 -2 -1 -2 -2 -2 -2 -2 -1 -2 -2 -1 -1 -1 -1 -1 -1 -1 -1 -1 -1 -1 -1 -1 -1
0 1 7 10 13 16 15 11 10 8 6 7 8 6 7 8 4 4 1 0 -0 -0 -0 -0 -1 -2 -2 -1 -2 -2 -2 -1 -1 -1 -1 -1 -1 -1 -1 -1 -1 -1 -1 -1 -1 -1 -1 -1 -1
2 4 6 12 14 11 11 9 8 8 7 6 6 9 5 3 3 2 0 0 0 -0 -0 -1 -1 -2 -2 -2 -1 -1 -2 -2 -2 -1 -1 -1 -1 -1 -1 -1 -1 -1 -1 -1 -1 -1 -1 -1 -1
2 6 12 13 13 10 8 7 7 9 8 7 6 9 8 3 1 1 1 0 1 0 -0 -0 -2 -2 -2 -2 -1 -1 -1 -1 -1 -1 -1 -1 -1 -1 -1 -1 -1 -1 -1 -1 -1 -1 -1 -1 -1
7 7 13 15 13 10 8 7 7 8 7 7 7 8 7 2 2 1 0 0 -0 0 -0 -0 -1 -2 -2 -2 -1 -1 -1 -1 -1 -1 -1 -1 -1 -1 -1 -1 -1 -1 -1 -1 -1 -1 -1 -1 -1
9 10 13 13 12 11 9 6 8 8 8 8 6 9 6 4 2 1 1 0 0 -0 -0 -0 -0 -1 -2 -2 -2 -1 -1 -1 -1 -1 -1 -1 -1 -1 -1 -1 -1 -1 -1 -1 -1 -1 -1 -1 -1
7 9 12 11 13 12 8 7 6 7 8 4 4 9 8 4 2 1 1 1 0 0 -0 -0 -0 -0 -0 -0 -1 -2 -1 -1 -1 -1 -1 -1 -1 -1 -1 -2 -1 -1 -1 -1 -1 -1 -1 -1 -1
5 12 14 13 11 10 7 8 6 5 6 5 5 5 4 2 2 2 2 2 1 1 0 0 0 0 -0 -0 -1 -1 -1 -1 -1 -1 -1 -1 -0 -1 -1 -1 -1 -1 -1 -1 -1 -1 -1 -1 -1
8 12 11 8 8 9 7 8 7 7 7 7 6 4 3 3 3 3 3 3 3 2 1 0 0 0 -0 -1 -0 -0 -0 -0 -0 -1 -1 -1 -1 -1 -1 -1 -1 -1 -1 -1 -1 -1 -1 -1 -1
8 12 8 7 7 6 8 8 6 8 9 7 7 6 4 4 4 4 3 3 3 2 1 0 0 -0 -0 -0 -0 -0 -0 -0 -0 -0 -0 -1 -1 -1 -1 -1 -1 -1 -1 -1 -1 -1 -1 -1 -1
10 8 7 7 6 7 8 6 8 7 7 5 5 4 4 4 4 4 4 3 2 2 1 0 -0 -0 -0 0 0 0 -0 -0 -0 -0 -0 -0 -1 -0 -0 -0 -1 -1 -1 -1 -1 -1 -1 -1 -1
9 7 6 6 6 6 6 7 7 7 5 4 4 4 5 4 4 3 3 2 2 2 1 1 0 0 -0 0 0 0 -0 -0 -0 -0 -0 -0 -0 0 -0 -0 -1 -1 -1 -1 -1 -1 -1 -1 -1
8 7 7 6 7 6 7 8 7 6 5 5 5 5 5 4 4 3 3 3 2 2 1 1 0 -0 -0 0 1 -0 -0 -0 -0 -0 -0 -0 -0 -0 0 -0 -0 -1 -1 -1 -1 -0 -1 -0 -1
10 11 10 9 9 7 6 10 9 6 5 6 6 5 5 4 3 4 3 3 2 2 1 1 1 0 0 0 1 0 -0 -0 -0 -0 -0 -1 -1 -0 -0 -0 0 -0 -1 -1 -1 -0 -1 0 1
12 12 14 11 9 8 7 12 8 6 6 7 6 5 5 4 4 3 2 2 2 1 1 1 0 0 0 0 0 -0 -0 -0 -0 -0 -1 -1 -1 -0 -0 -0 0 -0 -1 -1 0 -0 0 1 1
14 15 14 12 9 8 8 11 7 6 7 7 7 6 5 5 4 3 2 2 2 1 1 1 1 1 0 0 -0 -0 -0 -0 -0 -0 -0 -0 -0 -1 -0 -0 -0 -0 -0 -0 0 0 0 2 1
15 15 15 13 10 9 10 10 8 7 7 7 7 6 6 5 5 3 2 2 2 1 1 1 1 1 0 0 0 -0 -0 0 1 1 -0 -0 -0 -1 -0 -0 -0 -0 0 0 1 0 1 1 1
12 13 13 12 10 9 10 10 9 8 7 8 7 7 6 6 4 3 2 2 2 1 2 1 1 1 1 1 1 1 1 1 1 0 -0 -0 -1 -1 -0 0 -0 -0 0 0 1 1 1 1 1
12 14 14 12 10 10 10 10 9 8 8 7 7 7 6 6 5 4 3 2 2 2 2 2 1 1 1 1 1 1 1 1 1 -0 -0 -1 -1 -1 -0 0 0 -0 1 1 1 1 2 2 1
13 13 14 13 12 10 10 12 11 9 7 7 6 6 6 6 5 4 4 3 2 2 2 2 1 1 1 1 1 1 1 0 1 1 0 0 -0 -1 -1 0 0 0 0 1 1 2 2 2 1
14 11 12 13 14 16 10 16 12 10 10 8 7 7 6 5 5 4 4 3 3 2 2 1 1 1 1 0 1 1 2 3 2 1 0 0 0 -0 -1 0 0 0 0 1 1 2 3 1 2
11 9 11 13 15 16 14 14 12 10 12 10 8 7 6 5 5 5 4 3 3 2 2 1 1 1 1 1 1 1 2 1 1 1 1 0 -0 -0 -0 -0 0 1 1 1 2 2 2 1 1
9 10 12 14 15 18 15 14 15 13 10 9 8 7 6 5 4 4 3 3 3 2 2 2 2 2 1 1 1 1 2 2 2 2 2 1 1 0 0 0 1 1 1 1 2 2 2 0 0
11 13 17 18 18 17 15 15 12 9 8 8 8 7 6 5 5 4 4 4 3 3 2 2 2 2 1 1 1 1 1 1 2 2 2 1 1 1 1 1 1 1 1 1 2 2 2 0 1
13 14 17 20 20 17 15 16 14 9 7 6 6 5 5 5 4 4 4 3 3 3 3 2 2 2 2 1 1 1 1 1 1 1 1 1 1 1 -0 0 1 1 1 1 2 2 2 0 0
14 14 13 17 17 18 17 15 11 10 9 7 6 6 5 5 5 4 4 3 3 3 3 2 2 2 2 2 1 1 1 1 1 1 1 1 0 0 0 0 1 1 2 2 2 2 2 1 1
12 12 15 18 19 20 18 17 14 11 10 9 7 7 6 5 5 4 4 3 3 2 2 2 2 2 2 2 1 1 1 1 1 1 1 1 1 0 0 1 1 1 2 2 2 3 2 1 1
14 15 16 15 17 18 20 17 13 10 9 9 8 7 6 5 5 4 4 3 3 2 2 2 2 2 2 2 1 1 1 1 1 1 1 1 1 1 0 1 1 1 2 2 2 3 2 2 1
10 12 15 16 18 19 18 16 11 11 8 8 8 8 6 5 4 4 3 3 3 3 3 3 2 2 2 2 2 2 1 1 1 1 1 1 1 1 0 1 1 1 2 2 3 3 2 2 1